OE2SWM Weather Reports


Display with metric or nautical units.
time (UTC)temp
F
wind
direction
speed
MPH
gust
MPH
rain 1hr
in
rain 24hr
in
rain mn
in
humidity
%
barometer
mb
20260506102000 60 0 0.0 0.0 0.00 0.00 0.00 59 964.0
20260506101000 60 0 0.0 0.0 0.00 0.00 0.00 64 964.0
20260506100000 57 0 0.0 0.0 0.00 0.00 0.00 65 964.0
20260506095000 59 0 0.0 0.0 0.00 0.00 0.00 65 964.0
20260506094000 57 0 0.0 0.0 0.00 0.00 0.00 69 964.0
20260506093000 55 0 0.0 0.0 0.00 0.00 0.00 69 964.0
20260506092000 55 0 0.0 0.0 0.00 0.00 0.00 70 964.0
20260506091000 53 0 0.0 0.0 0.00 0.00 0.00 71 964.0
20260506090000 55 0 0.0 0.0 0.00 0.00 0.00 71 964.0
20260506085000 55 0 0.0 0.0 0.00 0.00 0.00 70 964.0
20260506084000 53 0 0.0 0.0 0.00 0.00 0.00 73 964.0
20260506083000 53 0 0.0 0.0 0.00 0.00 0.00 74 964.0
20260506082000 51 0 0.0 0.0 0.00 0.00 0.00 74 964.0
20260506081000 53 0 0.0 0.0 0.00 0.00 0.00 73 964.0
20260506073000 50 0 0.0 0.0 0.00 0.00 0.00 79 965.0
20260506072000 50 0 0.0 0.0 0.00 0.00 0.00 78 964.0
20260506071000 50 0 0.0 0.0 0.00 0.00 0.00 77 965.0
20260506062000 50 0 0.0 0.0 0.00 0.00 0.00 76 965.0
20260506061000 50 0 0.0 0.0 0.00 0.00 0.00 76 965.0
20260506051000 53 0 0.0 0.0 0.00 0.00 0.00 72 965.0
20260506045000 57 0 0.0 0.0 0.00 0.00 0.00 60 965.0
20260506044000 50 0 0.0 0.0 0.00 0.00 0.00 79 965.0
20260506043000 39 0 0.0 0.0 0.00 0.00 0.00 92 965.0
20260506042000 41 0 0.0 0.0 0.00 0.00 0.00 87 965.0
20260506041000 37 0 0.0 0.0 0.00 0.00 0.00 92 965.0
20260506040000 37 0 0.0 0.0 0.00 0.00 0.00 94 965.0
20260506035000 37 0 0.0 0.0 0.00 0.00 0.00 94 965.0
20260506034000 37 0 0.0 0.0 0.00 0.00 0.00 96 966.0
20260506033000 37 0 0.0 0.0 0.00 0.00 0.00 95 966.0
20260506032000 37 0 0.0 0.0 0.00 0.00 0.00 94 966.0
20260506031000 37 0 0.0 0.0 0.00 0.00 0.00 94 966.0
20260506030000 37 0 0.0 0.0 0.00 0.00 0.00 93 965.0
20260506025000 37 0 0.0 0.0 0.00 0.00 0.00 94 966.0
20260506024000 37 0 0.0 0.0 0.00 0.00 0.00 95 966.0
20260506023000 37 0 0.0 0.0 0.00 0.00 0.00 93 966.0
20260506022000 37 0 0.0 0.0 0.00 0.00 0.00 91 966.0
20260506021000 37 0 0.0 0.0 0.00 0.00 0.00 90 966.0
20260506020000 39 0 0.0 0.0 0.00 0.00 0.00 89 966.0
20260506015000 39 0 0.0 0.0 0.00 0.00 0.00 90 966.0
20260506014000 39 0 0.0 0.0 0.00 0.00 0.00 93 966.0
20260506013000 39 0 0.0 0.0 0.00 0.00 0.00 91 966.0
20260506012000 39 0 0.0 0.0 0.00 0.00 0.00 89 966.0
20260506011000 39 0 0.0 0.0 0.00 0.00 0.00 91 966.0
20260506010000 39 0 0.0 0.0 0.00 0.00 0.00 92 966.0
20260506005000 41 0 0.0 0.0 0.00 0.00 0.00 86 966.0
20260506004000 41 0 0.0 0.0 0.00 0.00 0.00 88 966.0
20260506003000 41 0 0.0 0.0 0.00 0.00 0.00 92 965.0
20260506002000 41 0 0.0 0.0 0.00 0.00 0.00 87 965.0
20260506001000 41 0 0.0 0.0 0.00 0.00 0.00 87 965.0
20260506000000 41 0 0.0 0.0 0.00 0.00 0.00 89 966.0
20260505235000 41 0 0.0 0.0 0.00 0.00 0.00 88 966.0
20260505234000 41 0 0.0 0.0 0.00 0.00 0.00 85 965.0
20260505233000 42 0 0.0 0.0 0.00 0.00 0.00 87 966.0
20260505232000 42 0 0.0 0.0 0.00 0.00 0.00 84 965.0
20260505231000 42 0 0.0 0.0 0.00 0.00 0.00 84 965.0
20260505230000 42 0 0.0 0.0 0.00 0.00 0.00 84 965.0
20260505225000 44 0 0.0 0.0 0.00 0.00 0.00 83 965.0
20260505224000 44 0 0.0 0.0 0.00 0.00 0.00 84 966.0
20260505223000 44 0 0.0 0.0 0.00 0.00 0.00 80 966.0
20260505222000 46 0 0.0 0.0 0.00 0.00 0.00 81 965.0
20260505221000 46 0 0.0 0.0 0.00 0.00 0.00 80 965.0
20260505220000 46 0 0.0 0.0 0.00 0.00 0.00 79 966.0
20260505215000 46 0 0.0 0.0 0.00 0.00 0.00 80 966.0
20260505214000 46 0 0.0 0.0 0.00 0.00 0.00 80 965.0
20260505213000 46 0 0.0 0.0 0.00 0.00 0.00 79 965.0
20260505212000 48 0 0.0 0.0 0.00 0.00 0.00 78 966.0
20260505211000 48 0 0.0 0.0 0.00 0.00 0.00 79 965.0
20260505210000 48 0 0.0 0.0 0.00 0.00 0.00 78 965.0
20260505205000 48 0 0.0 0.0 0.00 0.00 0.00 75 965.0
20260505204000 50 0 0.0 0.0 0.00 0.00 0.00 74 965.0
20260505203000 50 0 0.0 0.0 0.00 0.00 0.00 73 965.0
20260505202000 51 0 0.0 0.0 0.00 0.00 0.00 71 965.0
20260505201000 51 0 0.0 0.0 0.00 0.00 0.00 69 965.0
20260505200000 53 0 0.0 0.0 0.00 0.00 0.00 67 965.0
20260505195000 55 0 0.0 0.0 0.00 0.00 0.00 64 965.0
20260505194000 55 0 0.0 0.0 0.00 0.00 0.00 63 965.0
20260505193000 55 0 0.0 0.0 0.00 0.00 0.00 62 964.0
20260505192000 55 0 0.0 0.0 0.00 0.00 0.00 61 964.0
20260505191000 55 0 0.0 0.0 0.00 0.00 0.00 62 964.0
20260505190000 55 0 0.0 0.0 0.00 0.00 0.00 62 964.0
20260505185000 57 0 0.0 0.0 0.00 0.00 0.00 61 964.0
20260505184000 57 0 0.0 0.0 0.00 0.00 0.00 60 964.0
20260505183000 57 0 0.0 0.0 0.00 0.00 0.00 60 964.0
20260505182000 57 0 0.0 0.0 0.00 0.00 0.00 60 964.0
20260505181000 59 0 0.0 0.0 0.00 0.00 0.00 58 964.0
20260505180000 59 0 0.0 0.0 0.00 0.00 0.00 57 964.0
20260505175000 60 0 0.0 0.0 0.00 0.00 0.00 56 964.0
20260505174000 60 0 0.0 0.0 0.00 0.00 0.00 56 964.0
20260505173000 60 0 0.0 0.0 0.00 0.00 0.00 53 964.0
20260505172000 62 0 0.0 0.0 0.00 0.00 0.00 51 964.0
20260505171000 64 0 0.0 0.0 0.00 0.00 0.00 51 964.0
20260505170000 62 0 0.0 0.0 0.00 0.00 0.00 53 964.0
20260505165000 62 0 0.0 0.0 0.00 0.00 0.00 53 964.0
20260505164000 62 0 0.0 0.0 0.00 0.00 0.00 53 964.0
20260505163000 62 0 0.0 0.0 0.00 0.00 0.00 53 964.0
20260505162000 62 0 0.0 0.0 0.00 0.00 0.00 52 964.0
20260505161000 64 0 0.0 0.0 0.00 0.00 0.00 50 964.0
20260505153000 64 0 0.0 0.0 0.00 0.00 0.00 51 964.0
20260505152000 64 0 0.0 0.0 0.00 0.00 0.00 51 964.0
20260505151000 64 0 0.0 0.0 0.00 0.00 0.00 51 964.0
20260505125000 69 0 0.0 0.0 0.00 0.00 0.00 44 964.0
20260505124000 69 0 0.0 0.0 0.00 0.00 0.00 43 964.0
20260505123000 73 0 0.0 0.0 0.00 0.00 0.00 41 964.0
20260505122000 73 0 0.0 0.0 0.00 0.00 0.00 42 964.0
20260505121000 73 0 0.0 0.0 0.00 0.00 0.00 42 964.0
20260505120000 71 0 0.0 0.0 0.00 0.00 0.00 44 964.0
20260505115000 71 0 0.0 0.0 0.00 0.00 0.00 43 964.0
20260505114000 71 0 0.0 0.0 0.00 0.00 0.00 45 964.0
20260505113000 69 0 0.0 0.0 0.00 0.00 0.00 43 964.0
20260505112000 71 0 0.0 0.0 0.00 0.00 0.00 43 964.0
20260505111000 69 0 0.0 0.0 0.00 0.00 0.00 42 964.0